Bridgeport, CT

3:29 AM EDT on June 28, 2017 (GMT -0400)
Sikorsky Memorial

Weather History for KBDR - April, 2013

Change the Weather History Date:

Wednesday, April 3, 2013

  Actual Average Record
Temperature  
Mean Temperature 40 °F 45 °F  
Max Temperature 48 °F 53 °F 75 °F (1967)
Min Temperature 32 °F 37 °F 20 °F (1954)
Degree Days  
Heating Degree Days 25 20  
Month to date heating degree days 69 61  
Since 1 July heating degree days 4487 4745  
Cooling Degree Days 0 0  
Month to date cooling degree days 0 0  
Year to date cooling degree days 0 0  
Moisture  
Dew Point 11 °F    
Average Humidity 34    
Maximum Humidity 47    
Minimum Humidity 21    
Precipitation  
Precipitation 0.00 in 0.15 in 1.57 in (1990)
Month to date precipitation 0.02 0.43  
Year to date precipitation 9.58 10.37  
Snow  
Snow 0.00 in 0.10 in 0.50 in (1955)
Month to date snowfall 0.0 0.2  
Since 1 July snowfall 64.3 26.9  
Snow Depth 0.00 in    
Sea Level Pressure  
Sea Level Pressure 30.11 in    
Wind  
Wind Speed 15 mph (WNW)    
Max Wind Speed 25 mph    
Max Gust Speed 35 mph    
Visibility 10 miles    
Events      
T = Trace of Precipitation, MM = Missing Value Source: NWS Daily Summary

Daily Weather History Graph

Daily Weather History Graph

Search for Another Location

Airport or City:

Trip Planner

Search our weather history database for the weather conditions in past years. The results will help you decide how hot, cold, wet, or windy it might be!

Date:

Astronomy

Apr. 03, 2013 Rise Set
Actual Time 6:32 AM EDT 7:19 PM EDT
Civil Twilight 6:04 AM EDT 7:47 PM EDT
Nautical Twilight 5:31 AM EDT 8:21 PM EDT
Astronomical Twilight 4:56 AM EDT 8:55 PM EDT
Moon 2:14 AM EDT (4/3) 12:25 PM EDT (4/3)
Length of Visible Light 13h 43m
Length of Day
12h 47m
Last Quarter, 45% of the Moon is Illuminated
Apr 3
Last Quarter
Apr 10
New
Apr 18
First Quarter
Apr 25
Full
May 2
Last Quarter

Hourly Weather History & Observations

Time (EDT) Temp. Windchill Dew Point Humidity Pressure Visibility Wind Dir Wind Speed Gust Speed Precip Events Conditions
12:52 AM 35.1 °F 27.4 °F 10.0 °F 35% 30.06 in 10.0 mi West 10.4 mph 19.6 mph N/A   Clear
1:52 AM 34.0 °F 26.0 °F 10.9 °F 38% 30.06 in 10.0 mi West 10.4 mph - N/A   Clear
2:52 AM 33.1 °F 26.1 °F 12.0 °F 42% 30.05 in 10.0 mi West 8.1 mph - N/A   Clear
3:52 AM 33.1 °F 24.4 °F 12.9 °F 43% 30.05 in 10.0 mi West 11.5 mph 18.4 mph N/A   Clear
4:52 AM 32.0 °F 22.5 °F 12.9 °F 45% 30.06 in 10.0 mi WNW 12.7 mph 17.3 mph N/A   Clear
5:52 AM 33.1 °F 24.9 °F 14.0 °F 46% 30.08 in 10.0 mi West 10.4 mph - N/A   Clear
6:52 AM 33.1 °F 23.9 °F 14.0 °F 46% 30.10 in 10.0 mi West 12.7 mph 19.6 mph N/A   Clear
7:52 AM 34.0 °F 25.0 °F 15.1 °F 46% 30.12 in 10.0 mi West 12.7 mph 21.9 mph N/A   Clear
8:52 AM 36.0 °F 26.3 °F 12.9 °F 39% 30.12 in 10.0 mi WNW 16.1 mph 23.0 mph N/A   Clear
9:52 AM 37.0 °F 26.7 °F 12.0 °F 36% 30.11 in 10.0 mi WNW 19.6 mph 26.5 mph N/A   Clear
10:52 AM 39.9 °F 32.5 °F 12.0 °F 32% 30.11 in 10.0 mi West 12.7 mph 26.5 mph N/A   Clear
11:52 AM 42.1 °F 33.3 °F 9.0 °F 26% 30.10 in 10.0 mi WNW 19.6 mph 26.5 mph N/A   Clear
12:52 PM 43.0 °F 35.1 °F 10.9 °F 27% 30.09 in 10.0 mi West 17.3 mph 24.2 mph N/A   Clear
1:52 PM 46.0 °F 39.0 °F 9.0 °F 22% 30.08 in 10.0 mi NW 17.3 mph 31.1 mph N/A   Partly Cloudy
2:52 PM 46.9 °F - 10.0 °F 22% 30.07 in 10.0 mi WNW 15.0 mph 29.9 mph N/A   Clear
3:52 PM 46.9 °F - 9.0 °F 21% 30.06 in 10.0 mi WNW 12.7 mph 25.3 mph N/A   Clear
4:52 PM 46.9 °F - 10.0 °F 22% 30.07 in 10.0 mi West 17.3 mph 27.6 mph N/A   Clear
5:52 PM 45.0 °F 36.6 °F 9.0 °F 23% 30.08 in 10.0 mi WNW 21.9 mph 27.6 mph N/A   Clear
6:52 PM 43.0 °F 34.8 °F 8.1 °F 24% 30.13 in 10.0 mi WNW 18.4 mph 29.9 mph N/A   Clear
7:52 PM 41.0 °F 31.1 °F 8.1 °F 26% 30.17 in 10.0 mi WNW 23.0 mph 31.1 mph N/A   Clear
8:52 PM 39.0 °F 29.9 °F 10.0 °F 30% 30.20 in 10.0 mi WNW 17.3 mph 27.6 mph N/A   Clear
9:52 PM 37.0 °F 27.0 °F 10.9 °F 34% 30.23 in 10.0 mi WNW 18.4 mph 28.8 mph N/A   Clear
10:52 PM 36.0 °F 26.7 °F 10.9 °F 36% 30.25 in 10.0 mi NW 15.0 mph 20.7 mph N/A   Clear
11:52 PM 36.0 °F 29.0 °F 10.9 °F 36% 30.27 in 10.0 mi NW 9.2 mph - N/A   Clear